CZ-4C R/B, 41728

Orbit data source: Space-Track

CZ-4C R/B, 41728 is space debris in SSO originally from a launch on Tue, 09 Aug 2016 UTC launched from the Taiyaun Space Center, China (TSC). Debris objects in space refer to the collection of defunct objects orbiting the Earth. Examples of debris include non-operational satellites, rocket bodies, and fragments generated from explosions, collisions, or faulty payload assembly.

Loading next visibility...
Identifier
41728, 2016-049B
Orbit
SSO
Country
Flag of CNCN / PRC
Related business
Manufacturer
SAST
Mission
Spacecraft
Bus & Motor
CZ-4 STAGE 3, Unknown motor
Mass
~1,000 kg wet, ~1,000 kg dry
Launch date (UTC)
2016-08-09 (9 years ago)
Launch vehicle
Unknown
Launch site
Taiyaun Space Center, China (TSC)
Object type
Payload
Rocket body
Debris
Shape & HBR
Cyl, 1.4 m
Radar Cross Section
7.676 m², Large (>1 m²)

Expand to show TLE details & history
Last TLE update: 10 hours ago

TLE from 10 hours ago
0 CZ-4C R/B
1 41728U 16049B   26036.14694838  .00001030  00000-0  16292-3 0  9999
2 41728  97.9777 104.9734 0096781 251.5250 107.5419 14.71432299508719
Epoch: 2026-02-05T03:31Z
TLE epoch observation values (Epoch: 2026-02-05T03:31:36.340Z)
Latitude
-0.00005°
Longitude
-83.23137°
Altitude
680.628 km
Speed
7.505 km/s
True Right ascension
06h 59m 53s
True Declination
0° 00' 00"
Sunlit
Object was in full shadow at epoch
Visualization orbit readout
Latitude
Unknown
Longitude
Unknown
Altitude
Unknown
Speed
Unknown
Apparent Right ascension
Unknown
Apparent Declination
Unknown
Sunlit
N/A
Visualization observer readout
Local Sidereal Time
15:19:50
Azimuth
Unknown
Elevation
Unknown
Doppler factor
Unknown
Orbital elements
Apogee altitude
721.608 km
Perigee altitude
585.501 km
Semi-major axis
7,031.692 km
Eccentricity
0.00968
Inclination
97.9777°
RAAN
104.9734°
Arg. of periapsis
251.525°
True anomaly
108.59545°
Mean anomaly
107.5419°
Eccentric anomaly
108.06907°
Mean motion
3.6809 °/min
Orbital period
97.8 mins
BSTAR
0.00016292
Loading maneuver chart data...
Computing Atmospheric mass density...
Loading historical data...
Loading historical data...
Loading historical data...
Loading historical data...
Loading historical data...
Loading historical data...
Loading historical data...
Other satellites on launch #49 in the year 2016 (2016-08-09 UTC)

Documentation

Showing up to 5 results
|